Wind_Speed
30 29 27 25 25 25 24 23 22 23 24 23 22 20 19 19 17 16 15 13 12 12 13 14 14 14 14 13 13 11 12 12 13 13 14 14 13 14 14 14 13 12 12 11
30 28 26 27 27 27 25 23 22 23 24 24 22 21 20 19 17 16 15 14 13 12 13 13 14 14 14 13 12 12 11 12 13 13 14 15 15 15 15 15 14 13 13 12
29 27 28 29 28 27 25 23 23 24 25 25 24 23 21 19 17 16 15 14 13 13 13 14 14 14 14 13 13 12 12 13 13 14 14 16 15 15 15 15 14 14 14 13
30 30 30 30 29 27 25 24 25 26 26 26 25 23 20 19 17 16 15 15 15 14 14 15 14 14 13 11 12 13 13 14 14 14 14 15 15 15 15 16 15 15 15 14
30 30 30 30 28 27 26 26 27 28 27 27 25 23 20 19 18 16 15 15 15 15 15 14 14 15 14 12 11 12 13 14 14 14 15 16 16 16 17 17 17 16 16 15
31 31 31 29 29 29 29 29 30 29 29 28 25 24 20 18 17 16 15 15 14 14 14 14 14 14 14 13 13 13 15 15 15 16 16 17 17 17 17 17 18 17 17 17
32 32 31 31 31 31 32 31 31 30 30 28 25 25 20 18 17 16 15 14 14 14 14 13 13 14 14 14 15 15 16 16 16 17 17 17 17 17 17 17 18 19 18 18
31 31 31 31 31 31 32 32 31 30 29 27 26 25 21 19 18 17 16 15 15 15 14 14 15 16 16 15 15 16 17 17 17 17 18 18 18 18 18 18 18 19 20 19
29 29 30 30 31 32 32 32 30 30 29 28 26 24 21 19 18 17 16 16 16 16 14 13 14 16 16 15 14 15 15 16 17 18 19 19 19 19 19 19 19 19 20 20
29 28 29 30 32 33 32 31 30 30 29 28 26 23 21 19 19 17 16 15 15 15 14 14 15 16 17 17 15 16 16 18 18 19 19 19 19 20 20 19 19 20 20 20
30 30 30 32 32 32 32 32 31 30 30 28 25 21 18 18 17 16 15 14 14 14 14 15 15 16 16 17 16 16 16 17 18 18 19 19 19 19 19 20 19 21 21 21
31 31 31 32 31 31 31 31 30 30 29 27 25 20 17 17 16 15 14 13 13 13 14 15 15 15 15 15 15 15 16 16 18 19 19 19 19 19 19 20 20 21 22 22
31 31 32 32 33 32 32 31 30 29 28 27 24 19 16 17 16 16 15 13 12 12 12 13 14 14 13 13 14 15 16 17 19 19 18 18 18 18 18 19 19 21 22 22
30 31 31 31 30 31 31 30 29 28 28 26 23 19 18 18 17 16 15 14 14 13 12 12 12 12 12 12 13 14 15 16 17 18 17 17 17 17 18 18 20 20 21 22
31 30 30 29 30 31 30 29 28 27 26 24 21 20 18 19 18 18 16 15 14 14 13 13 12 13 13 13 13 14 15 15 16 17 17 17 18 18 18 18 19 20 20 21
31 30 30 30 30 30 30 29 28 27 25 23 21 20 18 19 19 18 16 15 15 14 13 13 12 13 13 12 12 13 14 15 16 17 17 18 18 18 18 19 20 20 21 21
32 31 31 31 31 31 31 29 27 27 26 23 22 19 18 18 19 18 17 16 15 14 14 13 13 12 13 12 12 13 12 13 15 16 17 17 18 18 19 19 19 19 20 21
32 32 31 31 32 33 29 28 27 26 24 22 21 20 19 17 18 17 17 16 16 16 16 15 14 13 12 12 12 12 13 14 14 15 16 16 16 18 18 18 19 19 19 20
33 33 33 33 34 32 30 28 27 26 24 22 21 20 19 18 17 17 17 17 16 15 15 15 14 13 13 13 13 13 13 14 15 15 16 17 17 17 17 18 18 18 19 19
33 33 34 34 34 33 29 27 27 26 24 22 21 20 19 18 18 17 17 17 16 16 16 16 16 15 14 15 15 14 14 14 15 16 16 17 17 17 17 18 18 19 19 20
33 33 33 34 34 32 29 28 27 26 23 23 22 20 20 19 18 18 18 17 17 16 16 16 16 16 16 16 16 16 16 16 17 17 17 17 17 17 18 19 19 19 19 20
33 34 33 34 34 32 28 28 27 25 24 23 22 21 20 20 19 19 18 17 17 17 17 17 17 17 16 16 16 17 18 18 18 19 18 18 18 19 19 20 20 20 20 20
32 33 33 32 32 30 28 27 26 24 24 23 22 21 20 20 19 18 17 18 18 18 17 18 18 18 17 18 18 19 19 20 20 20 20 20 20 20 20 21 21 22 21 21
31 31 31 30 30 30 27 26 25 24 23 23 22 21 21 20 18 17 17 18 18 17 18 18 18 18 18 18 18 18 19 19 20 21 21 22 23 22 22 22 21 21 21 22
30 30 30 29 28 28 27 26 24 23 23 23 24 22 21 21 20 19 18 18 18 17 18 18 18 18 19 19 19 19 19 19 19 20 21 22 23 23 23 23 23 22 22 23
29 30 29 29 29 28 26 25 23 24 23 22 22 22 20 21 21 21 19 19 19 18 18 17 17 18 19 19 20 21 21 21 21 21 22 22 22 23 24 24 24 24 24 24
Wind_Direction
238 238 239 240 239 239 239 237 235 235 239 243 247 249 246 249 254 258 259 260 264 269 269 275 276 277 281 275 265 256 249 236 232 231 228 228 226 226 223 222 223 222 221 222
236 236 234 234 233 234 235 234 232 234 238 242 245 247 248 250 256 260 259 262 270 276 279 281 284 283 288 272 252 246 237 228 228 227 226 225 225 224 223 219 220 221 220 222
234 232 232 232 232 232 232 230 229 230 236 241 244 245 247 250 255 258 259 263 267 274 279 281 285 288 289 269 245 239 232 229 226 225 225 224 221 221 222 221 222 221 221 224
227 226 227 228 229 229 227 226 226 229 233 238 243 245 249 252 254 258 260 264 266 270 275 277 278 280 285 266 245 239 229 228 228 225 222 220 218 218 221 221 221 221 220 222
224 224 225 226 226 226 222 223 225 228 233 236 242 247 248 251 254 258 265 268 265 268 276 275 274 273 272 264 250 241 228 228 227 223 219 215 217 220 222 221 218 220 222 224
221 223 223 222 221 221 220 223 225 229 233 237 243 250 251 252 258 262 264 267 266 267 272 271 268 270 266 261 252 245 236 230 228 223 219 217 220 222 223 222 220 222 224 226
219 221 221 220 220 220 221 223 226 229 234 239 243 250 255 255 259 264 264 264 265 265 268 265 263 267 265 261 255 246 241 236 229 223 219 219 221 222 222 223 224 225 225 226
219 220 220 220 221 222 223 227 229 232 236 240 243 248 255 257 259 261 263 263 264 264 268 266 262 265 264 259 252 244 241 238 230 220 219 220 222 224 224 225 227 226 226 226
217 219 221 221 220 221 223 226 230 234 237 240 243 248 253 257 260 262 264 264 267 268 268 268 264 265 264 258 246 243 241 235 226 221 221 225 226 227 226 228 228 226 227 226
213 214 217 218 219 220 222 225 228 233 238 242 245 248 252 255 258 260 260 262 267 267 265 266 264 265 262 256 249 244 238 235 228 222 223 227 228 229 229 230 229 226 225 224
211 210 213 216 218 220 222 224 228 234 238 242 246 248 251 253 254 254 256 263 270 268 264 263 262 263 263 256 246 241 238 228 223 223 225 228 229 230 230 230 229 227 225 224
210 209 210 214 216 219 223 226 230 234 239 243 247 247 247 249 249 250 254 261 267 262 263 260 258 260 262 255 246 239 229 226 223 224 229 230 230 231 231 230 230 227 225 224
209 210 209 211 215 218 222 225 230 235 239 243 246 247 242 243 243 245 251 256 262 261 260 258 257 258 257 251 242 235 228 228 225 226 229 231 232 233 232 230 229 225 223 223
212 213 214 214 217 220 223 225 229 234 239 242 244 244 238 237 240 244 249 252 257 257 253 257 258 255 254 248 238 229 228 228 227 227 229 232 233 232 232 232 230 228 226 225
216 216 214 215 217 221 224 226 229 235 239 241 243 243 238 239 239 243 246 249 250 251 252 253 252 252 252 245 236 229 225 225 228 230 231 233 232 230 232 233 233 232 229 229
218 218 216 215 217 221 224 226 229 234 238 240 242 241 240 241 241 242 245 247 249 248 249 252 251 250 249 246 236 231 228 229 231 234 236 234 231 232 233 235 236 236 234 232
221 219 217 216 219 222 223 225 229 234 238 240 242 241 241 240 242 244 245 245 246 245 250 255 255 254 250 244 240 237 235 234 233 235 235 235 233 235 236 236 235 237 235 234
223 221 219 218 219 222 223 225 229 232 236 238 239 239 241 243 243 244 243 243 244 245 247 251 253 252 250 243 239 238 238 237 237 237 235 235 238 236 236 237 239 240 239 238
223 223 222 221 223 225 225 227 229 233 235 237 238 241 242 244 244 244 244 244 245 246 246 247 249 249 246 242 241 240 240 241 240 240 238 237 237 237 237 237 238 239 239 239
220 221 222 223 225 227 226 227 230 233 235 236 237 239 242 245 245 245 244 244 243 245 248 245 247 246 245 244 244 242 242 242 241 242 241 240 239 237 236 237 240 242 242 241
220 220 222 224 226 228 227 227 230 234 235 237 238 240 242 242 245 244 242 242 243 246 244 242 244 245 246 247 247 244 244 244 243 243 244 243 243 240 239 241 244 245 244 244
223 222 223 225 227 229 228 230 232 236 236 235 235 238 240 242 244 244 243 244 244 244 241 241 245 245 246 249 248 245 245 246 246 246 247 247 246 245 245 246 247 248 248 247
225 224 224 225 226 227 229 230 232 235 235 233 232 234 237 239 242 244 243 242 242 242 241 242 246 246 248 248 249 250 250 250 250 248 249 249 249 249 249 248 249 250 250 250
223 224 224 225 226 226 228 229 230 231 232 230 229 230 234 234 237 242 242 243 244 245 246 248 249 248 247 248 250 252 252 252 252 249 248 248 248 251 251 248 249 250 251 252
221 223 224 225 224 224 227 228 228 227 227 227 228 229 231 234 237 241 243 243 244 248 251 252 251 248 249 250 251 252 254 254 251 250 247 247 248 249 248 247 249 251 252 252
219 221 223 224 223 223 226 225 225 227 230 230 229 229 234 237 239 241 242 242 244 247 248 249 250 250 251 251 252 251 253 253 252 251 249 247 248 250 249 248 249 252 253 253
Height
5808 5813 5817 5821 5824 5826 5828 5831 5834 5836 5837 5839 5841 5843 5845 5847 5848 5850 5851 5852 5853 5853 5852 5852 5851 5851 5850 5849 5849 5850 5851 5852 5854 5856 5859 5861 5864 5865 5867 5869 5871 5873 5875 5876
5804 5808 5812 5814 5817 5820 5824 5827 5830 5832 5833 5835 5837 5839 5841 5843 5845 5847 5848 5849 5849 5849 5849 5848 5847 5847 5846 5845 5845 5847 5848 5850 5852 5853 5856 5858 5861 5863 5865 5867 5869 5871 5873 5875
5798 5803 5805 5808 5812 5815 5819 5823 5826 5828 5829 5831 5834 5836 5838 5840 5841 5843 5844 5845 5845 5846 5845 5845 5845 5844 5842 5841 5842 5844 5845 5847 5849 5851 5853 5855 5857 5860 5863 5865 5867 5869 5871 5873
5790 5795 5799 5803 5807 5811 5815 5819 5821 5823 5825 5827 5830 5832 5835 5836 5838 5839 5840 5841 5841 5842 5842 5842 5841 5841 5840 5839 5839 5841 5842 5844 5846 5848 5850 5852 5855 5858 5861 5862 5864 5867 5869 5871
5785 5789 5793 5798 5803 5807 5811 5814 5816 5818 5820 5823 5825 5827 5832 5832 5834 5836 5837 5837 5838 5838 5838 5838 5838 5838 5837 5837 5838 5839 5840 5842 5844 5846 5848 5850 5853 5856 5858 5860 5862 5864 5866 5868
5778 5782 5787 5793 5797 5801 5805 5808 5811 5813 5816 5819 5822 5823 5827 5829 5831 5832 5833 5833 5833 5834 5835 5835 5835 5835 5834 5834 5835 5836 5838 5840 5841 5844 5846 5848 5851 5853 5855 5857 5859 5862 5864 5866
5772 5777 5782 5787 5791 5795 5799 5803 5806 5809 5811 5815 5819 5819 5823 5826 5827 5828 5829 5830 5830 5831 5831 5831 5832 5832 5832 5832 5832 5833 5835 5836 5838 5841 5843 5845 5848 5850 5853 5855 5857 5859 5861 5863
5768 5773 5777 5782 5787 5791 5795 5799 5803 5806 5808 5812 5814 5815 5820 5822 5823 5824 5825 5826 5826 5827 5828 5828 5828 5828 5827 5827 5828 5830 5831 5832 5834 5837 5840 5842 5844 5847 5849 5851 5853 5855 5857 5859
5763 5769 5773 5778 5782 5786 5790 5793 5799 5802 5804 5807 5809 5813 5816 5818 5819 5820 5822 5822 5823 5824 5824 5825 5825 5824 5824 5823 5824 5826 5827 5828 5831 5833 5836 5839 5841 5843 5846 5848 5849 5851 5853 5856
5758 5763 5768 5772 5777 5781 5786 5790 5793 5796 5799 5802 5805 5809 5812 5814 5815 5817 5818 5819 5819 5820 5820 5821 5821 5821 5821 5820 5821 5822 5823 5825 5828 5830 5833 5835 5837 5840 5842 5844 5845 5847 5850 5852
5752 5758 5763 5767 5771 5776 5781 5785 5788 5791 5795 5798 5801 5807 5809 5810 5811 5813 5814 5815 5815 5816 5816 5817 5817 5817 5817 5817 5817 5818 5819 5821 5824 5827 5829 5832 5833 5835 5837 5839 5841 5843 5846 5848
5747 5752 5757 5762 5767 5771 5776 5780 5784 5787 5791 5794 5797 5804 5804 5806 5807 5809 5810 5811 5812 5812 5812 5813 5813 5813 5814 5813 5814 5814 5816 5818 5821 5824 5826 5828 5829 5832 5833 5835 5837 5839 5842 5845
5742 5747 5752 5757 5763 5767 5770 5775 5779 5783 5787 5789 5793 5800 5800 5802 5804 5805 5807 5808 5808 5809 5809 5809 5809 5810 5810 5810 5810 5811 5813 5815 5818 5820 5823 5824 5826 5828 5829 5831 5834 5836 5838 5841
5738 5743 5748 5754 5758 5762 5766 5771 5775 5778 5781 5785 5789 5793 5796 5797 5799 5801 5803 5804 5805 5805 5805 5805 5805 5806 5806 5807 5807 5808 5810 5812 5814 5817 5819 5821 5823 5824 5826 5828 5830 5833 5835 5837
5733 5738 5743 5749 5754 5758 5762 5766 5770 5773 5777 5781 5785 5788 5791 5793 5795 5797 5798 5800 5800 5801 5802 5802 5802 5803 5804 5804 5804 5805 5807 5809 5812 5814 5816 5818 5819 5821 5823 5825 5827 5829 5831 5834
5728 5734 5739 5743 5748 5752 5757 5761 5765 5769 5773 5776 5780 5783 5786 5788 5790 5792 5794 5795 5796 5797 5798 5798 5799 5800 5800 5801 5802 5803 5805 5807 5809 5811 5813 5814 5816 5818 5820 5822 5824 5826 5828 5830
5723 5729 5734 5738 5743 5747 5751 5756 5760 5764 5768 5772 5775 5779 5781 5783 5785 5788 5790 5791 5792 5793 5794 5795 5796 5796 5797 5798 5800 5801 5803 5804 5806 5808 5810 5811 5813 5815 5816 5818 5820 5823 5825 5827
5719 5723 5728 5733 5738 5742 5749 5752 5756 5760 5764 5767 5770 5774 5776 5779 5781 5783 5785 5787 5788 5789 5790 5791 5792 5793 5794 5795 5797 5799 5800 5802 5803 5805 5806 5808 5810 5811 5813 5815 5817 5819 5821 5823
5712 5718 5723 5727 5731 5736 5743 5747 5751 5755 5759 5763 5766 5769 5772 5774 5776 5779 5780 5782 5784 5785 5786 5787 5788 5790 5791 5793 5795 5796 5797 5799 5800 5802 5803 5805 5806 5808 5810 5812 5813 5815 5817 5819
5706 5711 5717 5721 5726 5731 5738 5743 5746 5751 5754 5758 5761 5764 5767 5769 5772 5775 5776 5777 5779 5781 5782 5783 5785 5786 5788 5790 5791 5793 5794 5796 5797 5799 5800 5801 5803 5804 5806 5808 5809 5811 5813 5815
5700 5705 5710 5715 5720 5726 5732 5737 5741 5747 5751 5754 5756 5759 5762 5765 5767 5769 5771 5773 5774 5776 5778 5779 5781 5783 5784 5785 5787 5789 5790 5792 5793 5794 5796 5797 5799 5800 5802 5804 5805 5807 5808 5810
5694 5699 5704 5709 5715 5723 5727 5731 5736 5741 5745 5748 5751 5754 5757 5759 5762 5763 5766 5768 5770 5771 5773 5775 5777 5778 5780 5781 5782 5784 5785 5787 5788 5790 5792 5793 5795 5796 5798 5799 5800 5802 5803 5805
5688 5694 5699 5705 5712 5717 5721 5726 5731 5735 5739 5742 5746 5749 5752 5755 5757 5759 5761 5763 5765 5767 5769 5771 5772 5774 5775 5776 5778 5779 5781 5782 5784 5785 5787 5788 5790 5791 5793 5794 5796 5797 5798 5799
5683 5688 5694 5700 5705 5711 5716 5721 5725 5729 5733 5737 5741 5744 5747 5750 5752 5754 5756 5758 5760 5761 5764 5766 5767 5769 5770 5771 5773 5774 5775 5777 5778 5779 5781 5783 5785 5787 5788 5789 5790 5791 5793 5794
5678 5683 5689 5695 5700 5706 5711 5716 5720 5725 5728 5732 5735 5739 5742 5745 5748 5750 5751 5753 5755 5757 5759 5760 5762 5763 5765 5767 5768 5769 5770 5772 5773 5774 5775 5777 5779 5781 5782 5784 5785 5786 5787 5788
5674 5679 5685 5690 5696 5701 5706 5711 5715 5719 5723 5726 5730 5734 5737 5740 5743 5745 5747 5749 5751 5753 5754 5756 5757 5759 5760 5762 5763 5764 5765 5766 5767 5768 5769 5771 5773 5775 5776 5777 5779 5780 5781 5782